STARLINK-2588 (48398 NORAD) Tracking and Keplerian Element Data

This shows tracking and keplerian element data for the satellite.

Feedback or suggestion? Click here.




ElementValue
Catalog48398
NameSTARLINK-2588
Epoch Orbit366
Epoch Day214.91667824
Epoch Year2021
RAAN322.4256
Inclination53.0519
Eccentricity0.00012
Argument of Perigee76.0797
Mean Anonmoly286.4145
Mean Motion15.10272769
Decay Rate-0.01134772
L11 48398U 21038AX 21214.91667824 -.01134772 00000-0 -74384-1 0 9993
L22 48398 53.0519 322.4256 0001200 76.0797 286.4145 15.10272769 3665

Live tracking and technical data element details for STARLINK-2588 (NORAD 48398). STARLINK-2588 can be tracked NOW for your location showing map with azimuth and elevation plus other details from your city location.

Track the satellite on the map from your city or location and see movement details for azimuth, elevation, latitude, longitude, range, height, and movement on the map or in text.







IsCatalogInMostPopularTable: catalog: 48398, numindb: 26
Update: records affected: 1



GetName: 48398 STARLINK-2588

Hit Count: updated at: Tue, 03 Aug 2021 21:40:38 GMT